Theta_e
316 318 324 326 321 316 320 322 319 319 319 319 321 320 319 321 322 322 326 326 326 320 315 315 315 314 313 313 313 313 315 318 318 319 322 324 324 324 324 323 322 322 322 322 326 323 325 326 326
318 322 325 326 321 322 321 319 319 318 319 319 320 321 320 319 320 320 322 325 326 321 315 314 314 314 314 313 313 313 314 314 316 316 315 316 317 318 320 320 322 324 324 324 324 323 323 322 322
318 323 326 321 320 320 318 317 315 318 319 319 319 319 320 319 319 320 319 319 322 317 314 314 313 313 312 312 312 312 312 313 313 313 312 312 312 312 313 314 315 316 317 318 318 319 320 321 323
320 321 322 316 317 316 318 316 316 316 318 318 319 317 318 319 320 318 318 318 318 315 314 314 313 312 310 309 309 309 309 309 309 308 307 307 307 307 307 308 309 310 311 311 311 312 312 313 315
320 322 320 318 317 317 317 318 318 316 317 317 318 317 317 317 318 317 317 318 317 315 314 314 313 310 309 308 308 308 307 306 305 304 303 303 303 303 303 303 303 303 303 302 302 303 303 303 304
320 319 316 318 320 319 317 319 318 317 317 317 317 316 317 318 318 316 316 317 317 315 314 313 312 309 308 309 308 308 306 304 303 303 303 303 303 303 303 302 302 302 302 302 302 302 302 302 302
320 318 320 320 319 319 318 318 317 317 316 316 317 314 316 316 317 316 315 316 317 316 313 313 311 309 308 309 309 308 305 303 303 304 304 304 304 303 302 302 302 302 301 301 302 302 302 302 302
320 315 318 317 318 320 317 318 318 317 317 318 318 315 316 318 317 315 314 316 316 316 314 313 311 309 308 308 309 307 304 303 303 304 305 305 303 302 302 302 302 302 302 302 302 302 302 302 301
320 314 315 318 320 319 317 316 317 317 317 317 317 317 317 318 317 315 314 314 315 316 315 313 311 310 308 308 308 306 303 303 303 305 306 305 305 303 303 303 303 303 303 303 303 303 302 302 301
319 316 319 319 318 317 317 316 317 316 316 315 317 317 317 316 316 316 314 314 315 315 315 314 311 310 308 308 308 307 305 304 304 305 306 305 304 304 303 303 303 303 303 304 304 304 303 302 301
318 315 317 318 319 318 317 316 317 315 312 316 317 316 316 316 315 315 315 314 315 314 313 313 312 310 309 308 308 308 307 305 305 305 305 305 304 303 303 302 303 303 303 304 304 303 303 302 302
319 319 319 319 319 318 316 316 316 316 317 317 318 317 317 316 316 317 315 314 314 313 313 313 311 310 309 308 308 307 307 306 304 304 304 304 304 303 302 302 302 302 303 303 303 303 304 303 301
318 317 319 319 318 317 317 316 314 316 317 317 317 317 316 316 316 317 316 315 313 313 313 312 311 310 309 308 307 307 306 306 304 303 304 304 303 303 302 302 302 302 302 302 302 303 303 302 301
317 317 316 317 318 317 315 314 315 317 317 316 316 317 317 317 317 316 316 315 314 313 312 312 310 309 308 308 306 306 305 305 303 303 302 302 302 303 302 301 301 302 301 302 302 302 302 300 298
317 315 312 314 315 314 316 313 312 318 316 316 317 317 317 317 317 317 316 316 315 313 312 312 310 308 308 307 306 305 304 304 303 302 301 301 301 302 301 301 301 301 301 301 301 300 300 299 298
315 314 314 314 313 315 315 314 313 317 316 316 316 316 317 317 316 316 316 316 315 313 312 311 310 308 308 306 305 304 303 302 302 301 300 300 300 301 300 300 301 300 300 300 300 299 299 298 297
312 312 313 314 314 312 312 313 312 316 316 316 316 316 317 317 317 316 315 315 315 314 312 311 310 308 307 306 304 302 302 301 301 301 300 299 300 300 300 300 300 299 299 299 298 298 298 297 296
311 313 313 313 313 313 312 313 313 315 314 314 315 315 316 316 316 316 316 315 315 314 313 310 309 308 307 305 303 301 300 300 300 300 299 299 299 299 300 300 299 299 299 298 298 297 297 295 295
312 311 311 313 313 314 314 313 314 313 313 312 315 316 317 317 317 316 316 315 315 313 312 310 309 307 306 305 303 301 300 301 300 299 299 298 298 298 299 299 298 298 298 298 297 297 296 295 294
312 312 312 313 311 311 312 313 313 310 313 314 314 315 316 315 315 315 315 315 314 314 312 310 309 307 307 305 305 303 303 301 300 299 298 298 297 297 298 298 298 298 298 297 297 296 295 295 293
312 312 312 312 312 310 310 311 312 311 312 314 315 316 316 315 315 315 314 314 314 313 312 310 309 308 307 306 304 302 299 298 298 297 297 297 297 296 297 298 297 297 297 297 296 295 294 293 292
313 311 312 312 312 313 311 314 311 311 311 310 313 316 316 316 315 314 314 314 314 313 311 310 309 307 306 305 304 303 303 302 302 302 300 298 296 296 296 297 296 296 296 296 295 294 293 292 291
313 312 312 313 312 311 313 312 314 310 310 311 311 314 316 316 315 314 313 313 313 312 311 309 308 307 306 306 305 304 302 300 300 300 298 297 296 295 295 296 296 296 296 296 295 293 292 291 290
310 311 311 310 308 312 310 311 312 310 311 311 311 314 316 317 314 313 313 313 312 311 309 308 307 307 307 306 305 304 303 301 299 298 297 297 296 295 295 295 295 295 295 295 294 293 292 290 289
310 310 311 310 310 314 309 310 313 312 310 310 311 315 317 316 313 314 313 313 312 310 309 308 307 307 307 307 307 306 304 301 300 299 298 297 296 295 295 294 295 294 294 294 294 293 291 290 289
308 310 310 309 312 313 309 310 311 310 310 313 315 316 315 314 313 314 313 312 311 310 309 308 308 307 307 308 308 307 305 302 300 299 298 297 297 297 295 294 294 294 294 294 293 292 290 289 289
309 310 310 311 297 307 313 310 309 310 309 308 309 309 311 313 314 313 312 311 310 310 310 311 310 309 308 308 307 307 305 303 301 299 298 296 296 294 293 293 293 293 293 293 293 291 290 289 288
308 307 310 309 309 307 312 309 312 311 312 311 308 306 311 312 312 312 311 311 311 311 311 310 310 309 309 308 308 307 307 305 302 299 298 296 293 292 292 292 292 292 292 293 292 290 289 288 287
306 308 308 309 309 313 312 313 309 311 310 310 307 309 311 312 312 312 312 312 311 311 310 310 309 308 308 307 307 307 307 305 302 300 297 295 292 292 292 291 291 292 292 292 291 289 288 287 286
307 309 309 311 311 308 312 313 313 309 310 307 310 312 311 311 312 312 312 312 312 311 310 310 310 308 309 308 306 305 304 303 301 299 297 294 292 291 291 291 291 291 292 292 290 289 287 286 286
Wind_Speed
4 4 2 2 4 5 4 5 2 2 3 3 10 4 6 3 2 3 15 16 14 16 15 12 11 10 9 7 5 4 5 6 4 3 4 5 6 6 6 5 4 5 5 4 4 5 5 6 6
3 4 2 1 3 2 5 3 4 2 5 5 6 4 5 1 2 6 17 19 17 17 15 12 10 9 7 7 6 5 5 4 4 5 6 6 6 6 7 7 7 7 7 7 8 9 8 8 8
3 2 1 3 2 3 4 4 7 6 7 5 3 1 1 4 5 5 10 17 20 17 14 11 11 9 8 7 6 5 4 4 5 4 5 5 5 6 6 7 8 9 10 10 11 11 10 10 10
3 1 1 2 7 7 4 4 8 10 4 6 5 2 4 9 5 6 10 14 20 18 15 13 12 11 10 10 8 8 6 5 5 4 3 4 4 5 6 6 7 8 9 10 11 11 12 12 13
2 1 1 2 6 5 2 16 13 5 7 8 8 4 4 11 14 11 9 16 21 20 17 15 14 13 12 10 8 7 6 5 4 3 2 2 3 4 5 6 6 6 7 7 8 8 10 11 12
1 1 2 3 4 3 3 10 11 8 7 8 7 3 4 9 14 13 13 15 20 20 19 18 17 16 15 10 7 6 5 4 2 2 1 1 2 3 4 4 4 4 4 5 5 5 6 6 7
2 3 4 5 6 5 2 8 6 9 11 12 7 6 5 14 14 14 15 17 20 21 21 20 20 18 15 11 10 8 7 6 4 2 1 3 3 2 2 2 3 4 4 5 6 7 8 8 8
2 3 4 4 4 5 6 5 3 7 7 7 15 7 6 16 16 16 18 20 21 23 23 23 21 19 17 14 12 10 9 8 7 4 2 3 3 3 3 3 4 4 5 6 8 9 10 10 11
2 3 3 5 3 1 6 4 5 5 7 8 13 12 11 9 16 19 22 24 25 26 26 26 24 23 20 18 16 14 12 11 8 5 3 4 5 4 4 5 6 7 8 9 10 11 12 12 14
4 3 6 4 3 3 2 7 7 5 8 10 16 21 22 19 20 23 26 27 27 27 28 28 27 26 23 22 19 17 14 12 10 7 6 6 6 7 7 7 7 8 9 10 11 13 14 15 16
5 6 5 5 7 5 4 4 8 9 7 19 24 30 27 26 26 28 29 30 27 26 28 29 30 29 27 25 23 20 18 16 14 12 10 10 10 10 9 8 8 9 9 11 12 13 15 15 16
4 12 19 15 14 6 3 6 7 18 29 12 10 19 29 31 31 31 31 31 31 31 30 30 31 32 30 28 26 23 21 18 17 16 14 13 12 11 10 10 10 10 10 11 13 15 16 18 16
5 6 15 18 15 17 15 17 12 24 29 26 29 29 26 28 34 35 33 32 31 34 33 33 33 34 33 32 29 27 24 22 21 20 18 16 14 12 12 12 11 11 12 12 14 16 17 17 16
4 10 13 19 27 18 10 8 7 29 26 25 32 34 33 36 37 34 37 38 37 35 35 34 35 35 35 34 32 30 27 25 24 22 21 18 16 14 14 13 12 11 12 13 15 17 18 18 17
6 8 9 19 22 7 11 9 14 38 29 24 25 28 33 39 37 40 37 39 38 37 36 35 35 34 34 34 33 32 29 28 26 24 22 20 18 16 14 14 13 12 12 14 16 17 18 18 18
2 2 5 6 9 6 12 15 11 12 20 29 34 34 31 33 37 39 39 38 38 37 38 36 36 36 34 34 35 33 32 29 27 25 24 21 20 17 16 15 15 13 13 15 17 18 18 18 19
3 6 8 11 10 6 6 12 10 18 22 32 33 32 34 37 38 40 39 39 39 38 39 39 39 39 36 33 35 34 32 30 28 27 25 24 23 20 18 17 16 13 14 15 16 16 18 19 20
7 6 6 9 4 4 6 19 15 25 14 19 25 27 35 42 49 45 41 39 41 40 39 40 40 39 36 34 36 35 33 32 30 29 28 27 25 23 20 19 17 14 14 15 16 16 16 18 22
5 6 8 19 10 10 17 18 21 28 23 25 38 42 46 51 51 42 35 34 41 43 42 42 42 40 39 39 40 40 39 36 34 32 31 29 27 25 22 20 17 14 15 16 17 17 17 17 21
12 15 16 16 12 10 14 21 18 10 17 27 30 39 48 45 41 35 28 30 40 44 43 42 42 41 40 40 40 40 39 37 33 32 32 29 28 27 25 22 18 16 16 17 18 18 17 18 20
20 15 19 18 10 6 8 11 13 12 17 30 38 45 47 46 41 34 28 30 37 45 45 43 41 40 40 39 39 40 36 35 36 38 36 33 32 31 28 25 21 17 17 18 18 19 18 17 18
23 9 15 10 3 12 4 14 8 7 12 10 26 38 42 45 39 29 27 30 39 43 42 40 38 38 39 40 40 43 44 46 45 41 36 34 33 32 31 27 22 18 18 20 19 18 18 18 18
18 3 4 1 4 5 6 6 3 8 8 11 16 37 42 40 33 23 27 29 36 40 39 37 36 37 39 40 41 44 45 45 41 38 35 35 34 34 32 29 25 22 19 20 20 19 19 20 20
2 1 1 2 2 12 8 9 6 7 9 6 11 29 35 29 27 20 25 29 35 36 36 36 38 39 40 40 42 44 46 44 41 40 39 38 36 35 35 32 28 23 20 21 20 19 20 22 22
3 4 4 4 1 13 12 11 23 5 7 11 13 25 30 31 21 17 27 30 31 36 37 38 40 42 42 41 41 42 44 44 43 42 42 41 39 39 36 34 30 26 21 21 21 21 22 23 23
8 9 6 7 10 19 4 8 6 10 14 26 31 34 32 28 17 25 25 25 29 34 37 39 41 43 44 43 43 42 43 44 45 44 45 43 41 37 34 33 32 28 23 23 23 23 23 24 23
5 6 8 1 2 3 9 12 7 7 10 11 20 10 23 24 22 25 24 21 25 32 37 38 39 43 47 46 45 45 44 44 46 45 45 44 40 36 36 35 32 28 24 23 25 25 24 24 23
5 2 1 1 3 7 17 6 14 15 22 19 7 10 14 17 18 19 19 20 22 28 33 37 40 44 46 48 48 48 46 44 45 46 45 44 42 40 38 35 32 29 25 25 26 26 25 24 21
1 4 5 2 5 13 15 14 6 2 6 7 7 9 11 10 11 11 15 19 23 28 34 37 41 43 45 48 51 51 51 49 48 46 46 45 44 42 39 35 32 29 26 26 27 26 25 24 21
5 7 9 9 10 4 7 15 20 8 5 7 5 2 1 5 18 26 24 24 29 32 33 35 41 43 42 46 52 54 53 52 50 47 46 45 43 42 39 36 34 31 29 29 28 26 25 24 22
Wind_Direction
176 156 159 84 41 68 268 261 87 74 61 63 69 75 120 78 155 196 167 195 192 191 191 195 195 187 183 189 210 210 194 224 250 265 284 289 310 316 319 324 314 305 306 301 310 293 305 310 311
164 154 93 6 97 65 270 205 123 141 141 122 90 57 60 124 169 163 168 200 198 195 186 192 192 191 188 185 191 198 197 212 232 259 273 280 275 274 280 284 283 276 281 285 295 306 309 307 302
138 134 50 104 169 194 219 195 149 132 141 135 114 84 180 185 215 206 195 201 200 198 190 187 187 189 190 188 186 190 196 203 224 242 252 267 274 275 277 275 273 275 280 283 284 287 288 287 288
154 127 288 94 249 263 195 156 146 134 123 157 146 159 205 203 219 197 206 197 198 196 198 193 194 193 184 178 175 174 175 187 196 220 242 267 285 286 278 271 272 278 282 286 291 291 290 289 288
123 176 45 255 268 253 228 151 154 141 162 195 177 230 225 215 229 238 223 204 204 199 200 202 200 195 188 183 181 176 178 188 190 212 231 263 274 287 299 302 303 300 297 295 293 293 294 294 294
15 272 30 256 256 257 196 153 151 163 188 183 193 197 237 232 230 231 226 212 208 207 205 207 206 200 195 195 196 193 184 183 184 163 136 13 346 342 339 340 339 341 343 341 342 336 330 323 322
137 93 228 248 258 302 207 160 169 186 179 190 184 164 230 218 219 227 221 218 216 212 212 212 208 206 206 203 205 198 187 180 174 177 337 350 340 335 346 347 352 356 359 353 346 341 337 332 327
280 98 284 254 252 250 160 147 185 211 243 226 203 221 227 230 218 216 215 218 220 217 219 219 215 213 212 211 212 206 195 189 190 205 264 328 328 331 343 354 358 355 348 344 334 331 328 325 323
268 48 260 262 299 252 171 157 196 232 233 206 206 237 236 227 214 211 212 216 220 221 224 222 219 218 215 216 212 208 202 199 208 230 264 288 295 300 312 318 326 332 335 335 332 330 323 317 315
165 154 235 223 292 284 216 201 197 209 235 236 234 238 246 244 233 224 222 224 227 225 224 227 223 222 220 219 216 214 212 213 220 234 258 274 272 270 277 286 298 312 318 321 323 321 320 319 315
201 212 219 284 297 299 277 253 242 203 236 232 238 242 242 244 242 238 237 240 243 235 229 230 227 226 223 223 222 218 216 218 223 230 241 248 256 260 261 268 283 293 303 311 314 317 318 317 312
228 246 255 283 278 263 256 271 257 236 248 256 267 254 251 242 242 244 243 241 238 236 236 234 229 228 227 225 225 223 223 223 225 230 234 242 251 258 263 271 280 288 292 295 304 314 318 317 316
231 260 272 270 288 256 250 254 257 265 261 261 256 258 255 253 252 249 250 247 241 238 237 235 232 230 227 227 224 223 222 223 226 230 234 238 242 251 257 263 270 277 284 295 304 307 310 312 314
257 269 274 280 273 259 213 260 233 271 274 266 252 247 253 254 256 256 250 248 244 242 238 236 234 231 229 228 225 225 224 225 226 229 232 234 237 248 256 261 267 272 281 292 300 307 316 321 320
283 315 308 267 257 223 204 282 224 268 261 258 255 254 248 252 254 257 258 256 251 245 241 237 235 233 230 227 226 226 225 226 227 228 231 231 234 242 249 254 259 267 281 294 303 311 319 321 320
246 206 286 273 134 203 151 260 248 253 251 251 249 251 247 252 254 258 260 260 255 246 240 236 236 234 233 229 226 225 225 226 228 228 230 231 235 239 241 246 251 261 282 294 302 313 321 323 321
266 240 216 295 199 141 171 257 270 266 240 248 256 252 253 254 260 259 259 259 256 250 240 233 234 233 232 229 227 226 226 228 229 231 232 232 233 232 236 244 250 262 282 291 302 313 318 322 322
213 226 244 240 196 160 195 248 261 260 249 245 259 266 268 266 270 271 265 260 252 245 243 235 232 230 230 230 226 225 226 228 229 230 232 231 231 228 232 241 247 261 278 289 298 305 316 324 324
250 252 236 268 260 205 241 238 255 257 260 255 261 267 269 272 281 279 269 264 246 237 234 231 230 227 226 224 221 222 224 226 228 229 230 230 229 229 233 238 244 262 280 289 294 299 311 322 325
247 257 263 274 270 196 249 254 253 242 246 250 248 259 266 268 273 274 264 253 238 232 230 229 230 229 227 228 226 227 228 229 232 233 233 232 232 232 234 237 242 258 276 286 291 296 307 319 327
250 248 259 256 294 232 281 266 248 245 250 252 255 259 265 267 268 270 253 246 231 225 226 228 230 230 229 229 226 226 224 227 227 229 231 231 232 233 234 235 239 250 272 282 283 289 299 310 317
262 218 258 267 257 271 134 290 218 231 239 237 247 257 261 269 268 263 245 232 225 226 226 231 231 229 227 228 225 226 226 226 230 234 236 235 234 234 234 235 239 249 269 279 279 283 294 302 307
261 182 237 248 239 318 176 285 201 197 242 247 245 252 265 270 269 248 234 231 224 223 226 231 230 226 227 228 229 228 230 232 236 237 235 233 234 234 235 236 239 245 261 275 274 281 291 298 302
110 203 199 40 84 264 189 209 184 195 213 235 246 254 259 259 261 251 232 224 223 223 227 227 224 223 224 226 230 231 233 233 232 233 232 233 234 234 235 236 239 243 254 270 273 279 285 292 297
170 78 301 315 24 260 184 222 252 275 216 214 231 241 237 248 258 243 209 216 222 224 222 221 222 223 224 226 230 233 235 234 234 236 237 235 233 232 234 235 238 243 252 267 272 275 283 290 294
184 176 173 225 259 277 157 251 256 224 232 244 240 247 249 245 237 227 220 224 225 224 220 220 222 224 224 226 228 232 236 236 235 237 238 238 239 239 236 235 236 241 248 261 267 271 278 283 289
169 181 219 334 64 0 257 274 294 256 281 271 247 252 252 246 216 218 223 231 229 228 226 225 226 227 226 227 229 232 235 236 235 236 239 238 238 235 233 234 236 238 245 257 264 269 276 282 287
170 146 110 278 208 242 273 274 271 286 278 272 240 211 212 203 208 219 230 238 237 240 236 234 235 236 233 231 231 232 234 236 239 238 238 237 236 233 232 233 234 238 244 256 262 268 274 279 283
150 247 234 215 181 243 258 271 152 97 316 291 260 223 200 221 236 256 262 256 247 243 237 237 237 239 238 238 237 236 236 235 237 239 238 237 234 233 232 232 234 238 245 254 261 268 274 276 279
168 213 215 238 259 237 272 265 276 294 334 288 110 239 216 275 306 299 294 281 265 251 246 246 244 242 245 243 241 239 238 238 238 238 237 235 233 232 231 232 232 236 242 251 257 263 270 274 279